Regional Weather Roundup
Issued by NWS

Home | Current Version | Previous Version | Graphics & Text | Print | Product List | Glossary On
Versions: 1 2 3 4 5 6 7 8 9 10 11 12 13 14 15 16 17 18 19 20 21 22 23 24 25 26 27 28 29 30 31 32 33 34 35 36 37 38 39 40 41 42 43 44 45 46 47 48 49 50
071
ASUS45 KSLC 280010
RWRUT

UTAH REGIONAL WEATHER ROUNDUP
NATIONAL WEATHER SERVICE SALT LAKE CITY UT
600 PM MDT FRI MAY 27 2016

UTZ001>011-023>025-280100-

NORTHERN UTAH

CITY           SKY/WX    TMP DP  RH WIND       PRES   REMARKS
BRIGHAM CITY     N/A     64  37  36 CALM      29.92F
HILL AFB       MOSUNNY   64  43  45 N14       29.92S
LOGAN          CLOUDY    62  44  51 N5        29.93S
OGDEN          MOSUNNY   66  43  43 N13       29.91R
PROVO AIRPORT  NOT AVBL
SALT LAKE CITY MOSUNNY   70  35  27 VRB3      29.88F
VERNAL         CLOUDY    62  36  37 SW9       29.90S
WENDOVER       MOSUNNY   66  43  42 E15       29.89F
HEBER CITY     MOSUNNY   59  34  38 S3        29.93F
WEST JORDAN    SUNNY     66  37  34 CALM      29.92F

$$

UTZ012>022-026-027-280100-

SOUTHERN/CENTRAL UTAH

CITY           SKY/WX    TMP DP  RH WIND       PRES   REMARKS
BLANDING       MOSUNNY   66  29  25 CALM      29.97S
BRYCE CANYON   MOSUNNY   61  27  27 N15G25    30.03S
CEDAR CITY     MOSUNNY   69  33  26 S12G23    29.94S
DELTA          PTSUNNY   68  32  26 NE3       29.90F
HANKSVILLE     MOSUNNY   75  28  17 SW14      29.86S
MILFORD        PTSUNNY   70  31  23 NE8       29.89F
MOAB/CYNLANDS  SUNNY     75  28  17 NW13G20   29.82S
PRICE          PTSUNNY   69  28  21 W13       29.92S
ST GEORGE      PTCLDY    82  34  17 W9        29.82F
KANAB          MOSUNNY   75  32  20 W14       29.93S

$$

REGIONAL REPORTS     COLORADO/ARIZONA

CITY           SKY/WX    TMP DP  RH WIND       PRES   REMARKS
CRAIG, CO      LGT RAIN  48  40  73 E14       29.99R
GRAND JUNCTION PTSUNNY   68  32  26 N6        29.87S
RIFLE          CLOUDY    59  35  40 W10       29.95R
MONTROSE       CLOUDY    62  30  29 W13       29.95R
CORTEZ         CLOUDY    69  26  20 VRB5G23   29.91S
PAGE, AZ       MOSUNNY   78  30  17 N15       29.85R
GRAND CANYON   MOSUNNY   68  25  19 W6G17     30.01S
KINGMAN        MOSUNNY   81  24  12 W6        29.85F
FLAGSTAFF      MOSUNNY   63  25  23 W9        30.03F

$$

REGIONAL REPORTS    NEVADA/IDAHO/WYOMING

CITY           SKY/WX    TMP DP  RH WIND       PRES   REMARKS
LAS VEGAS, NV  MOSUNNY   90  27  10 VRB3      29.71F
ELY            MOSUNNY   68  24  19 NW18      29.95F
ELKO           MOSUNNY   68  30  24 W15       29.92S
POCATELLO, ID  MOSUNNY   68  34  28 SW23      29.90S
BURLEY         PTSUNNY   62  35  36 W10       29.91F
EVANSTON, WY   CLOUDY    54  35  48 N15       29.99S
ROCK SPRINGS   CLOUDY    58  35  42 SW17      29.93S
KEMMERER         N/A     46  37  71 S5        30.02S

$$




USA.gov is the U.S. government's official web portal to all federal, state and local government web resources and services.